[[{"header":{"parameterUnit":"m.s-1","parameterCategory":1,"la1":30.2991,"la2":30.254,"lo1":-89.0895,"lo2":-89.0444,"dy":0.0017,"dx":0.0017,"nx":28,"ny":28,"refTime":"2025-11-26T09:00:00:Z","depth":0,"parameterNumber":2,"parameterNumberName":"U-component_of_WINDS"},"data":[0,0,0,0,0,0,0,0,0,0,0,0,0,0,0,0,0,0,0,0,0,0,0,0,0,0,0,0,0,0,0,0,0,0,0,0,0,0,0,0,0,0,0,0,0,0,0,0,0,0,0,0,0,0,0,0,0,0,-1.0895,-1.0896,0,-1.0954,-1.0955,-1.0955,-1.0901,-1.0899,-1.0897,-1.0895,-1.0957,-1.0961,-1.0964,0,0,0,0,0,0,0,0,0,0,0,0,0,-1.0736,-1.0739,-1.0895,-1.0896,-1.0896,-1.0954,-1.0955,-1.0956,-1.0902,-1.0899,-1.0896,-1.0894,-1.0956,-1.096,-1.0965,0,0,0,0,0,0,0,0,0,0,0,0,0,-1.0801,-1.074,-1.0895,-1.0876,-1.0875,-1.0954,-1.0955,-1.0956,-1.0902,-1.0899,-1.0895,-1.0892,-1.0955,-1.096,-1.0965,-1.1066,0,0,-1.0982,-1.0985,0,0,0,0,0,0,0,0,-1.0797,-1.0807,-1.0878,-1.0878,-1.0877,-1.0917,-1.0922,-1.0993,-1.0903,-1.0892,-1.0895,-1.0891,-1.0947,-1.0953,-1.0971,-1.1069,-1.1072,-1.0983,-1.0986,-1.0989,-1.099,0,0,0,0,0,0,0,-1.0793,-1.0804,-1.0918,-1.0879,-1.0878,-1.0865,-1.0871,-1.0935,-1.0937,-1.0893,-1.0889,-1.0896,-1.0945,-1.0966,-1.0972,-1.1072,-1.0983,-1.0988,-1.0991,-1.0993,-1.1255,-1.1259,0,0,0,0,0,0,-1.079,-1.0801,-1.0916,-1.092,-1.0828,-1.0871,-1.0877,-1.0907,-1.0936,-1.0937,-1.0899,-1.0894,-1.0958,-1.0966,-1.0974,-1.1094,-1.0989,-1.0994,-1.0997,-1.1252,-1.1256,-1.126,0,0,0,0,0,0,-1.0787,-1.0801,-1.0914,-1.0859,-1.0873,-1.0877,-1.0911,-1.091,-1.093,-1.0941,-1.0941,-1.092,-1.0956,-1.0966,-1.1043,-1.1096,-1.0996,-1.1002,-1.1248,-1.1253,-1.1258,-1.1335,0,0,0,0,0,0,-1.0783,-1.08,-1.0838,-1.0861,-1.0876,-1.0983,-1.0915,-1.0914,-1.094,-1.0933,-1.096,-1.0962,-1.0954,-1.1035,-1.1049,-1.1101,-1.1006,-1.1243,-1.125,-1.1256,-1.1328,-1.1342,-1.1355,0,0,0,0,0,-1.0777,-1.0858,-1.0841,-1.0855,-1.0924,-1.0986,-1.0994,-1.0983,-1.0944,-1.0983,-1.099,-1.0961,-1.1087,-1.1044,-1.1059,-1.1114,-1.124,-1.1248,-1.1256,-1.1322,-1.1339,-1.1354,0,0,0,0,0,0,-1.0843,-1.0861,-1.0842,-1.0932,-1.0958,-1.0976,-1.1025,-1.1002,-1.104,-1.1032,-1.1017,-1.1024,-1.1105,-1.1116,-1.1068,-1.1212,-1.1157,-1.1169,-1.1202,-1.1219,-1.1232,-1.1229,-1.1011,0,0,0,0,0,-1.0868,-1.0916,-1.0929,-1.1008,-1.1021,-1.1021,-1.1047,-1.1036,-1.1063,-1.1073,-1.1086,-1.1113,-1.1158,-1.1189,-1.1231,-1.1328,-1.1334,-1.1373,-1.1387,-1.1398,-1.1408,-1.1461,-1.1479,-1.1287,-1.1287,-1.1287,0,0,-1.092,-1.0936,-1.0967,-1.1021,-1.104,-1.1091,-1.1031,-1.1087,-1.1125,-1.1082,-1.1156,-1.1166,-1.1194,-1.1282,-1.1321,-1.1294,-1.1462,-1.1408,-1.1417,-1.1422,-1.1471,-1.1489,-1.1505,-1.1292,-1.1291,-1.129,0,0,-1.1042,-1.1058,-1.1126,-1.1145,-1.1173,-1.1172,-1.1188,-1.121,-1.1215,-1.1288,-1.1257,-1.1302,-1.138,-1.1402,-1.1424,-1.1552,-1.1527,-1.1566,-1.1637,-1.1689,-1.1704,-1.1717,-1.1764,-1.1781,-1.1576,-1.1577,-1.1577,0,-1.1104,-1.1179,-1.1163,-1.1222,-1.1247,-1.1209,-1.1277,-1.1297,-1.1338,-1.1356,-1.1325,-1.1422,-1.1439,-1.1531,-1.1563,-1.1581,-1.1599,-1.1564,-1.1703,-1.1716,-1.1728,-1.1773,-1.179,-1.1581,-1.1581,-1.158,-1.158,0,-1.1254,-1.1306,-1.1357,-1.1398,-1.1428,-1.1491,-1.1485,-1.1517,-1.1503,-1.1505,-1.158,-1.1599,-1.1644,-1.1665,-1.1652,-1.1755,-1.1738,-1.1705,-1.165,-1.1751,-1.1793,-1.181,-1.1588,-1.1586,-1.1585,-1.1584,0,0,-1.1422,-1.145,-1.147,-1.1487,-1.1515,-1.1556,-1.1617,-1.166,-1.1689,-1.1718,-1.1769,-1.1836,-1.1805,-1.183,-1.1818,-1.1863,-1.1964,-1.1824,-1.1825,-1.1851,-1.208,-1.2106,-1.2126,-1.1947,-1.195,-1.1952,-1.2078,0,-1.1545,-1.1652,-1.1638,-1.174,-1.1789,-1.1753,-1.1806,-1.1829,-1.1832,-1.1874,-1.1877,-1.1925,-1.188,-1.1895,-1.1937,-1.1943,-1.201,-1.1933,-1.1996,-1.1998,-1.1992,-1.2148,-1.2176,-1.2294,-1.2094,-1.2097,-1.2099,0,-1.1705,-1.1739,-1.1845,-1.1865,-1.1885,-1.1933,-1.1972,-1.2012,-1.2037,-1.2036,-1.2062,-1.2043,-1.2104,-1.2046,-1.213,-1.2078,-1.2102,-1.2109,-1.2113,-1.2121,-1.2056,-1.2161,-1.2331,-1.2349,-1.2124,-1.2122,-1.212,0,-1.1818,-1.189,-1.1963,-1.1979,-1.2004,-1.2038,-1.205,-1.2072,-1.2099,-1.2132,-1.215,-1.219,-1.2213,-1.2245,-1.2236,-1.2194,-1.2323,-1.2264,-1.2325,-1.2325,-1.2356,-1.2355,-1.2534,-1.2368,-1.2368,-1.2368,-1.2367,0,-1.1959,-1.2026,-1.2014,-1.206,-1.2134,-1.2117,-1.2191,-1.2198,-1.2217,-1.2264,-1.2234,-1.2278,-1.2263,-1.2306,-1.23,-1.2372,-1.2382,-1.2383,-1.2381,-1.2387,-1.2387,-1.2404,-1.2397,-1.2372,-1.2371,-1.237,-1.237,0,-1.2099,-1.2094,-1.2171,-1.2187,-1.2193,-1.2247,-1.2261,-1.2303,-1.2303,-1.2362,-1.2375,-1.2375,-1.2424,-1.2418,-1.2473,-1.2469,-1.2558,-1.2545,-1.255,-1.2548,-1.2609,-1.2604,-1.2808,-1.2834,-1.265,-1.2651,-1.2653,0,-1.219,-1.2241,-1.2262,-1.2291,-1.2305,-1.2351,-1.2378,-1.2363,-1.2393,-1.2424,-1.2463,-1.2509,-1.2545,-1.2625,-1.2631,-1.2672,-1.2661,-1.273,-1.2668,-1.2672,-1.2664,-1.2662,-1.2667,-1.2743,-1.2745,-1.2747,-1.2748,0,-1.2353,-1.2348,-1.2388,-1.2427,-1.246,-1.249,-1.2517,-1.2542,-1.253,-1.2564,-1.2614,-1.2642,-1.2697,-1.2744,-1.2783,-1.2795,-1.277,-1.2767,-1.2784,-1.2791,-1.2793,-1.2794,-1.2585,-1.2763,-1.2762,-1.2761,-1.276,-1.2759,-1.2473,-1.2516,-1.2538,-1.2583,-1.2602,-1.2627,-1.2668,-1.2672,-1.2713,-1.2757,-1.2745,-1.2802,-1.2824,-1.2874,-1.289,-1.2934,-1.2909,-1.2932,-1.2939,-1.2945,-1.2953,-1.2784,-1.294,-1.294,-1.2939,-1.2939,-1.2939,0,-1.2636,-1.2647,-1.2689,-1.2728,-1.2763,-1.2735,-1.2763,-1.2795,-1.2845,-1.2867,-1.2903,-1.296,-1.3004,-1.3012,-1.3054,-1.3088,-1.3078,-1.31,-1.3098,-1.3101,-1.2972,-1.2955,-1.3107,-1.3107,-1.3107,-1.3107,-1.3107,-1.3107,-1.2725,-1.2797,-1.2794,-1.2875,-1.2885,-1.294,-1.2959,-1.2982,-1.3,-1.3065,-1.3101,-1.3105,-1.3122,-1.3165,-1.3205,-1.3206,-1.3223,-1.325,-1.3247,-1.3127,-1.3111,-1.3095,-1.3078,-1.3254,-1.3254,-1.3373,-1.3374,-1.3375]},{"header":{"parameterUnit":"m.s-1","parameterCategory":1,"la1":30.2991,"la2":30.254,"lo1":-89.0895,"lo2":-89.0444,"dy":0.0017,"dx":0.0017,"nx":28,"ny":28,"refTime":"2025-11-26T09:00:00:Z","depth":0,"parameterNumber":3,"parameterNumberName":"V-component_of_WINDS"},"data":[0,0,0,0,0,0,0,0,0,0,0,0,0,0,0,0,0,0,0,0,0,0,0,0,0,0,0,0,0,0,0,0,0,0,0,0,0,0,0,0,0,0,0,0,0,0,0,0,0,0,0,0,0,0,0,0,0,0,-6.5238,-6.5239,0,-6.5357,-6.5358,-6.536,-6.5249,-6.5245,-6.5241,-6.5236,-6.5353,-6.536,-6.5367,0,0,0,0,0,0,0,0,0,0,0,0,0,-6.4908,-6.4914,-6.5237,-6.5239,-6.524,-6.5357,-6.5358,-6.536,-6.525,-6.5245,-6.5239,-6.5234,-6.5351,-6.5359,-6.5368,0,0,0,0,0,0,0,0,0,0,0,0,0,-6.5041,-6.4917,-6.5237,-6.52,-6.5198,-6.5356,-6.5358,-6.536,-6.5251,-6.5245,-6.5238,-6.5232,-6.5348,-6.5358,-6.5369,-6.5569,0,0,-6.5402,-6.5407,0,0,0,0,0,0,0,0,-6.5034,-6.5054,-6.5204,-6.5203,-6.5201,-6.5282,-6.5285,-6.543,-6.5253,-6.5231,-6.5236,-6.5229,-6.5334,-6.5346,-6.5383,-6.5575,-6.558,-6.5403,-6.541,-6.5415,-6.5418,0,0,0,0,0,0,0,-6.5025,-6.5048,-6.5284,-6.5206,-6.5204,-6.5175,-6.5187,-6.5312,-6.5318,-6.5232,-6.5225,-6.524,-6.5332,-6.5373,-6.5385,-6.5581,-6.5403,-6.5413,-6.5419,-6.5424,-6.5942,-6.5949,0,0,0,0,0,0,-6.502,-6.5041,-6.5281,-6.5288,-6.5099,-6.5186,-6.5199,-6.5262,-6.5317,-6.5319,-6.5246,-6.5235,-6.5357,-6.5372,-6.5388,-6.5626,-6.5414,-6.5425,-6.5431,-6.5935,-6.5944,-6.5951,0,0,0,0,0,0,-6.5014,-6.5043,-6.5276,-6.5163,-6.519,-6.5199,-6.5271,-6.5268,-6.5308,-6.5327,-6.5327,-6.5287,-6.5353,-6.5373,-6.5525,-6.5628,-6.543,-6.5439,-6.5926,-6.5937,-6.5947,-6.6102,0,0,0,0,0,0,-6.5005,-6.5041,-6.5119,-6.5165,-6.5197,-6.5413,-6.5277,-6.5275,-6.5328,-6.5315,-6.5365,-6.5367,-6.5349,-6.551,-6.5536,-6.5639,-6.5448,-6.5917,-6.5931,-6.5944,-6.6088,-6.6117,-6.6142,0,0,0,0,0,-6.4993,-6.5157,-6.5123,-6.5153,-6.5294,-6.5419,-6.5437,-6.5415,-6.5337,-6.5414,-6.5426,-6.5365,-6.5613,-6.5526,-6.5555,-6.5663,-6.591,-6.5927,-6.5943,-6.6076,-6.6111,-6.6141,0,0,0,0,0,0,-6.512,-6.5162,-6.5126,-6.5309,-6.5362,-6.5401,-6.5497,-6.5453,-6.5527,-6.5511,-6.5478,-6.549,-6.5651,-6.5672,-6.5575,-6.5859,-6.5749,-6.5771,-6.584,-6.5874,-6.59,-6.5892,-6.5457,0,0,0,0,0,-6.517,-6.527,-6.53,-6.5459,-6.5488,-6.5489,-6.5542,-6.552,-6.5573,-6.5594,-6.5616,-6.5668,-6.5757,-6.5816,-6.5899,-6.609,-6.6099,-6.6179,-6.6206,-6.6228,-6.6248,-6.6349,-6.6385,-6.6005,-6.6005,-6.6005,0,0,-6.5273,-6.5308,-6.5373,-6.5486,-6.5524,-6.5626,-6.5508,-6.5621,-6.5697,-6.561,-6.5756,-6.5775,-6.5829,-6.6002,-6.6079,-6.6024,-6.6355,-6.6249,-6.6266,-6.6274,-6.637,-6.6406,-6.6438,-6.6016,-6.6014,-6.6012,0,0,-6.5513,-6.555,-6.5687,-6.5728,-6.5788,-6.5787,-6.582,-6.5866,-6.5875,-6.6021,-6.5959,-6.6046,-6.6201,-6.6242,-6.6284,-6.654,-6.6486,-6.6567,-6.6708,-6.6808,-6.6837,-6.6864,-6.6954,-6.6987,-6.6587,-6.6588,-6.6588,0,-6.5633,-6.5787,-6.5762,-6.5881,-6.5931,-6.586,-6.5996,-6.6036,-6.612,-6.6156,-6.6093,-6.6286,-6.6317,-6.6498,-6.6561,-6.6597,-6.6632,-6.6561,-6.6836,-6.6862,-6.6886,-6.6972,-6.7006,-6.6597,-6.6596,-6.6595,-6.6594,0,-6.5931,-6.6039,-6.6141,-6.6226,-6.6288,-6.6415,-6.6407,-6.6472,-6.6445,-6.645,-6.6599,-6.6635,-6.6724,-6.6765,-6.6739,-6.6942,-6.6906,-6.6841,-6.6729,-6.6932,-6.7012,-6.7045,-6.6611,-6.6607,-6.6604,-6.6602,0,0,-6.6255,-6.6324,-6.6362,-6.6399,-6.646,-6.6542,-6.6664,-6.6753,-6.681,-6.6869,-6.697,-6.7103,-6.7042,-6.709,-6.7067,-6.7154,-6.7354,-6.7078,-6.7078,-6.7127,-6.7579,-6.7628,-6.7667,-6.7319,-6.7325,-6.733,-6.7574,0,-6.6497,-6.6713,-6.6693,-6.6897,-6.6996,-6.6929,-6.7035,-6.7083,-6.7091,-6.7174,-6.7181,-6.7276,-6.719,-6.7218,-6.7301,-6.7312,-6.7444,-6.7294,-6.7411,-6.7416,-6.74,-6.7708,-6.7761,-6.7989,-6.7605,-6.7611,-6.7614,0,-6.6808,-6.6881,-6.7096,-6.7141,-6.7182,-6.7278,-6.7358,-6.7438,-6.749,-6.749,-6.7543,-6.7505,-6.7627,-6.7513,-6.7679,-6.7577,-6.7624,-6.7636,-6.7644,-6.7654,-6.7527,-6.7726,-6.8062,-6.8096,-6.7664,-6.766,-6.7656,0,-6.7022,-6.7173,-6.7321,-6.7355,-6.7412,-6.7482,-6.7508,-6.7554,-6.7608,-6.7676,-6.7711,-6.7792,-6.7837,-6.7899,-6.7884,-6.7803,-6.8053,-6.7938,-6.8055,-6.8055,-6.811,-6.8107,-6.8458,-6.8141,-6.8141,-6.814,-6.8139,0,-6.7295,-6.7428,-6.7418,-6.7509,-6.7656,-6.7632,-6.7777,-6.7795,-6.7836,-6.7927,-6.7873,-6.796,-6.7935,-6.8019,-6.8008,-6.8146,-6.8167,-6.8168,-6.8164,-6.8173,-6.8173,-6.8203,-6.8187,-6.8149,-6.8147,-6.8145,-6.8144,0,-6.7559,-6.7558,-6.7714,-6.7756,-6.7769,-6.7876,-6.791,-6.7995,-6.7998,-6.8115,-6.814,-6.8145,-6.8243,-6.8233,-6.8342,-6.8334,-6.8505,-6.8482,-6.8489,-6.8484,-6.86,-6.859,-6.8983,-6.9033,-6.8684,-6.8687,-6.869,0,-6.7733,-6.7834,-6.7887,-6.7946,-6.7977,-6.8072,-6.8128,-6.8106,-6.8166,-6.8233,-6.8309,-6.8402,-6.8475,-6.8632,-6.8644,-6.8727,-6.8704,-6.8836,-6.8716,-6.8722,-6.8706,-6.87,-6.8709,-6.886,-6.8864,-6.8867,-6.887,0,-6.8041,-6.8036,-6.8119,-6.8203,-6.8271,-6.8336,-6.8394,-6.8444,-6.8428,-6.8498,-6.8597,-6.8654,-6.8766,-6.8857,-6.8936,-6.896,-6.8913,-6.8908,-6.8939,-6.895,-6.8949,-6.8951,-6.8553,-6.8898,-6.8896,-6.8893,-6.8892,-6.8891,-6.8265,-6.8352,-6.8403,-6.8497,-6.8539,-6.8595,-6.8677,-6.8691,-6.8775,-6.8865,-6.8847,-6.8959,-6.9006,-6.9106,-6.9139,-6.9224,-6.9176,-6.9222,-6.9233,-6.9245,-6.9258,-6.8936,-6.9238,-6.9238,-6.9237,-6.9236,-6.9236,0,-6.857,-6.86,-6.8687,-6.8771,-6.8846,-6.8796,-6.8858,-6.8922,-6.9022,-6.9072,-6.9145,-6.9259,-6.9348,-6.9367,-6.9451,-6.9516,-6.9496,-6.9539,-6.9534,-6.954,-6.9297,-6.9261,-6.9554,-6.9554,-6.9554,-6.9554,-6.9553,-6.9553,-6.8738,-6.8883,-6.8883,-6.9047,-6.9075,-6.9186,-6.9225,-6.9276,-6.9315,-6.9446,-6.952,-6.9532,-6.9569,-6.9656,-6.9735,-6.9738,-6.9771,-6.9822,-6.9817,-6.9589,-6.9557,-6.9527,-6.9493,-6.983,-6.983,-7.0053,-7.0055,-7.0057]}]]